Location: C�mpuri de-Sus
(45.9500°N, 22.5500°E)
Time: 07:40:40
(UTC+00:00)

Cosmos 839 Rocket - Pass Details

Date: 04 December 2023
Orbit: 960 x 2092 km, 65.9° (Epoch: 04 March)

Event Time Altitude Azimuth Distance (km) Brightness Sun altitude
Exits shadow 03:31:31 32° 260° (W) 3,126 6.0 -24.0°
Maximum altitude 03:37:26 53° 318° (NW) 2,454 5.7 -22.9°
Drops below altitude 10° 03:48:48 10° 34° (NE) 4,331 7.6 -21.0°
Sets 03:52:07 0° 40° (NE) 5,213 8.2 -20.4°
